SCP
1 1 1 1 1 0 0 0 0 0 0 0 0 0 1 1 1 2 2 2 2 2 2 2 1 1 1 1 1 1 0 0 0 0 0 0 0 0 0 0 0 0 0
1 1 1 1 1 0 0 0 0 0 0 0 0 0 1 1 1 2 2 2 2 2 2 2 1 1 0 1 1 1 0 0 0 0 0 0 0 0 0 0 0 0 0
1 1 1 1 0 0 0 0 0 0 0 0 0 0 0 1 1 2 2 2 1 2 2 2 1 1 0 0 1 1 0 0 0 0 0 0 0 0 0 0 0 0 0
1 1 0 0 0 0 0 0 0 0 0 0 0 0 1 1 1 1 2 1 1 2 2 2 1 1 0 0 1 1 0 0 0 0 0 0 0 0 0 0 0 0 0
1 0 0 0 0 0 0 0 0 0 0 0 0 0 1 1 1 1 1 1 1 1 2 2 2 1 0 0 1 1 0 0 0 0 0 0 0 0 0 0 0 0 0
1 0 0 0 0 0 0 0 0 0 0 0 0 1 1 0 0 1 1 1 1 1 2 2 2 1 1 1 1 1 0 0 0 0 0 0 0 0 0 0 0 0 0
0 0 0 0 0 0 0 0 0 0 0 0 0 0 0 0 0 0 1 1 1 1 1 2 2 1 1 1 1 1 1 0 0 0 0 0 0 0 0 0 0 0 0
0 0 0 0 0 0 0 0 0 0 0 0 0 0 0 0 0 0 0 1 1 1 1 2 2 2 1 1 1 1 1 0 0 0 0 0 0 0 0 0 0 0 0
0 0 0 0 0 0 0 0 0 0 0 0 0 0 0 0 0 0 0 0 0 1 1 1 2 2 2 1 1 1 1 1 0 0 0 0 0 0 0 0 0 0 0
0 0 0 0 0 0 0 0 0 0 0 0 0 0 0 0 0 0 0 0 0 0 1 1 1 2 2 2 1 1 1 1 0 0 0 0 0 0 0 0 0 0 0
0 0 0 0 0 0 0 0 0 0 0 0 0 0 0 0 0 0 0 0 0 0 0 1 1 1 1 1 1 1 1 1 0 0 0 0 0 0 0 0 0 0 0
0 0 0 0 0 0 0 0 0 0 0 0 0 0 0 0 0 0 0 0 0 0 0 0 1 1 1 1 1 1 1 1 0 0 0 0 0 0 0 0 0 0 0
0 0 0 0 0 0 0 0 0 0 0 0 0 0 0 0 0 0 0 0 0 0 0 0 0 1 1 1 1 1 1 1 0 0 0 0 0 0 0 0 0 0 0
0 0 0 0 0 0 0 0 0 0 0 0 0 0 0 0 0 0 0 0 0 0 0 0 0 0 0 0 0 0 0 0 0 0 0 0 0 0 0 0 0 0 0
0 0 0 0 0 0 0 0 0 0 0 0 0 0 0 0 0 0 0 0 0 0 0 0 0 0 0 0 0 0 0 0 0 0 0 0 0 0 0 0 0 0 0
0 0 0 0 0 0 0 0 0 0 0 0 0 0 0 0 0 0 0 0 0 0 0 0 0 0 0 0 0 0 0 0 0 0 0 0 0 0 0 0 0 0 0
0 0 0 0 0 0 0 0 0 0 0 0 0 0 0 0 0 0 0 0 0 0 0 0 0 0 0 0 0 0 0 0 0 0 0 0 0 0 0 0 0 0 0
0 0 0 0 0 0 0 0 0 0 0 0 0 0 0 0 0 0 0 0 0 0 0 0 0 0 0 0 0 0 0 0 0 0 0 0 0 0 0 0 0 0 0
0 0 0 0 0 0 0 0 0 0 0 0 0 0 0 0 0 0 0 0 0 0 0 0 0 0 0 0 0 0 0 0 0 0 0 0 0 0 0 0 0 0 0
0 0 0 0 0 0 0 0 0 0 0 0 0 0 0 0 0 0 0 0 0 0 0 0 0 0 0 0 0 0 0 0 0 0 0 0 0 0 0 0 0 0 0
0 0 0 0 0 0 0 0 0 0 0 0 0 0 0 0 0 0 0 0 0 0 0 0 0 0 0 0 0 0 0 0 0 0 0 0 0 0 0 0 0 0 0
0 0 0 0 0 0 0 0 0 0 0 0 0 0 0 0 0 0 0 0 0 0 0 0 0 0 0 0 0 0 0 0 0 0 0 0 0 0 0 0 0 0 0
0 0 0 0 0 0 0 0 0 0 0 0 0 0 0 0 0 0 0 0 0 0 0 0 0 0 0 0 0 0 0 0 0 0 0 0 0 0 0 0 0 0 0
0 0 0 0 0 0 0 0 0 0 0 0 0 0 0 0 0 0 0 0 0 0 0 0 0 0 0 0 0 0 0 0 0 0 0 0 0 0 0 0 0 0 0
0 0 0 0 0 0 0 0 0 0 0 0 0 0 0 0 0 0 0 0 0 0 0 0 0 0 0 0 0 0 0 0 0 0 0 0 0 0 0 0 0 0 0
0 0 0 0 0 0 0 0 0 0 0 0 0 0 0 0 0 0 0 0 0 0 0 0 0 0 0 0 0 0 0 0 0 0 0 0 0 0 0 0 0 0 0
Wind_Speed
1 2 2 2 1 2 2 1 1 0 1 1 1 1 1 1 1 1 1 2 2 2 2 2 2 2 2 2 2 1 2 2 2 2 1 2 2 2 1 2 2 2 2
2 2 3 2 2 1 1 1 1 0 1 1 1 1 2 1 2 1 1 1 2 2 2 2 2 2 2 2 1 2 2 1 1 2 1 1 1 2 2 2 1 1 2
3 3 3 3 3 2 0 0 1 1 1 1 1 1 1 1 1 1 1 1 2 2 2 2 2 2 2 2 2 2 2 2 1 1 2 2 1 0 1 1 1 1 1
4 4 4 3 3 3 2 1 1 1 1 1 1 2 2 2 2 2 1 2 2 2 2 2 2 2 2 2 2 2 2 3 2 0 0 1 2 2 0 1 1 1 1
5 5 5 4 3 4 3 1 1 0 1 1 1 2 2 1 1 2 2 2 2 2 2 2 2 2 2 2 2 2 2 2 2 2 1 1 1 1 2 1 1 1 1
6 6 6 5 5 4 4 2 2 1 1 0 1 1 2 2 2 2 2 2 1 1 2 2 2 2 2 2 2 2 2 2 2 2 2 2 2 1 1 1 1 1 1
7 7 7 7 6 5 4 3 2 2 1 1 1 0 1 2 3 2 2 2 2 1 2 2 2 2 2 2 2 2 2 2 3 3 2 2 2 2 1 2 1 1 1
7 7 6 6 6 5 4 4 3 2 2 1 1 1 1 1 2 2 2 1 1 1 2 2 2 2 2 2 2 1 2 2 2 2 3 2 2 2 2 2 2 1 1
7 6 7 6 6 5 5 4 3 3 3 2 2 2 2 2 2 2 2 2 1 1 2 1 2 2 2 2 2 1 1 2 2 2 3 2 2 2 2 2 2 3 2
7 6 5 6 5 5 5 5 5 4 3 3 2 2 2 2 2 2 2 2 2 2 2 1 1 2 2 2 2 1 1 2 1 1 2 2 1 1 1 2 1 2 2
8 7 6 6 5 5 5 6 5 5 4 3 3 3 2 2 2 2 2 2 2 2 2 1 1 2 2 1 2 2 2 2 1 1 2 2 1 1 1 1 1 2 2
7 6 6 6 6 6 6 5 5 5 4 3 3 3 3 2 2 2 2 2 3 2 2 1 1 1 2 1 1 2 2 2 2 2 2 1 1 1 1 1 2 2 2
8 7 6 6 6 6 6 5 5 5 5 4 3 3 3 2 2 2 2 3 3 3 3 2 2 2 2 1 1 1 1 1 1 2 2 1 1 1 1 1 1 1 1
7 7 6 6 7 6 6 6 6 5 4 4 3 3 2 2 2 2 2 2 2 2 3 3 2 2 2 1 1 1 2 1 1 1 1 1 2 2 2 1 1 1 1
8 8 7 6 6 6 6 6 5 5 4 3 3 3 3 3 3 3 2 2 2 2 2 2 2 2 1 1 1 1 2 2 2 1 1 1 1 1 1 1 2 2 1
9 8 8 7 6 6 6 6 5 5 4 3 4 3 2 2 3 3 2 2 2 2 2 2 2 2 1 2 2 1 1 1 1 1 1 1 1 1 1 1 1 2 2
9 9 7 7 6 6 6 5 5 4 4 3 3 3 2 2 2 2 2 2 2 2 2 2 2 2 2 3 2 2 1 1 1 1 1 1 1 1 1 1 1 1 1
9 8 7 8 6 5 5 5 5 4 4 3 3 3 3 3 2 2 2 2 2 2 2 2 2 2 2 3 2 2 1 1 1 1 1 1 0 0 1 1 1 1 1
7 6 6 7 6 6 6 5 5 4 4 4 3 3 3 2 2 2 2 2 1 2 2 2 2 2 2 3 2 2 1 1 1 0 0 1 1 0 0 1 1 0 1
6 6 6 6 6 6 5 5 5 5 4 4 4 3 3 2 2 2 2 1 1 1 1 1 2 1 1 3 3 3 1 1 1 1 1 0 0 0 1 1 2 1 2
7 7 6 5 5 5 5 5 5 5 5 4 4 3 3 3 2 2 2 1 1 1 1 1 1 1 2 3 4 4 1 1 1 1 1 1 1 1 1 1 1 2 2
7 7 6 5 5 5 5 5 5 5 5 4 4 4 3 3 2 2 2 2 2 1 1 1 1 1 2 3 4 4 3 2 1 1 1 1 2 2 2 1 1 1 1
7 6 5 5 5 5 5 5 5 5 4 4 4 3 4 3 2 2 2 2 2 1 1 1 1 2 2 2 4 4 4 3 2 1 1 2 3 3 2 1 2 2 1
6 6 6 6 6 5 5 5 5 4 4 4 4 3 3 3 3 2 2 2 2 1 1 1 1 1 2 2 2 2 3 3 3 2 2 3 3 3 2 2 2 1 1
6 6 5 5 6 5 5 5 4 4 4 3 3 3 3 2 2 2 2 2 1 2 1 1 1 1 1 2 4 3 2 2 1 2 1 1 1 1 1 1 1 1 1
6 6 6 6 5 5 5 5 5 4 3 3 3 3 2 2 2 2 2 4 4 4 5 4 3 2 3 4 4 4 4 4 3 2 1 1 1 2 2 2 2 1 1
Wind_Direction
33 44 56 59 79 85 88 96 103 101 111 127 154 153 175 159 149 144 135 142 137 143 141 146 143 132 137 143 141 127 122 113 113 87 58 37 42 51 46 70 84 82 85
30 37 44 43 50 76 83 125 142 148 139 162 171 169 163 166 169 165 142 126 135 145 148 149 152 142 136 142 146 135 127 129 124 118 116 82 16 17 24 44 72 89 77
24 30 41 34 24 22 29 162 143 145 124 134 148 146 122 117 118 153 149 114 115 129 135 148 143 141 146 163 173 163 143 151 173 107 133 145 181 322 344 18 45 64 78
28 25 28 25 16 0 2 96 125 132 132 136 155 163 165 166 175 168 150 131 118 119 125 137 136 142 146 158 180 168 157 154 172 158 45 127 139 146 152 346 18 23 52
33 25 18 10 17 16 20 41 62 83 130 143 173 184 173 167 149 141 140 139 133 124 130 137 136 141 151 164 170 167 157 155 165 159 144 93 72 115 149 203 297 349 344
30 24 17 14 16 20 24 28 37 20 44 102 162 186 165 149 139 131 138 140 129 125 136 138 142 147 154 166 173 176 166 166 163 156 149 156 157 172 155 171 198 257 283
25 21 17 10 9 13 17 18 27 18 21 76 100 222 153 146 144 142 150 146 142 140 164 147 153 159 169 169 165 173 174 172 168 168 175 176 172 152 151 150 178 225 276
18 15 13 11 5 6 10 12 19 16 25 51 53 65 72 113 122 115 114 133 152 159 159 155 153 157 163 159 157 162 177 166 167 177 175 176 170 157 156 164 162 183 280
11 11 10 7 2 6 7 5 12 12 16 29 39 52 56 53 76 92 91 88 72 114 119 136 142 150 157 153 152 154 161 161 172 181 178 161 165 165 167 168 168 170 209
3 5 6 3 3 5 4 10 14 11 17 24 30 40 48 58 60 79 76 74 68 79 115 123 145 141 132 128 133 144 136 142 162 163 158 161 163 165 167 179 196 182 188
360 0 0 359 3 8 13 10 9 12 12 19 28 41 47 58 63 75 77 76 63 76 104 119 134 137 137 139 144 150 146 149 147 144 149 166 164 171 184 189 184 181 176
359 0 360 1 5 7 9 6 4 7 7 13 26 39 48 61 70 71 66 67 65 60 78 92 116 108 113 120 139 147 144 153 158 154 142 164 164 167 185 173 182 194 196
3 2 3 4 3 3 2 1 1 4 3 13 21 44 51 53 66 68 75 68 68 59 59 53 111 109 103 114 138 150 138 145 152 151 154 167 160 173 168 166 191 205 201
3 4 2 3 0 357 357 357 357 360 1 6 14 33 47 51 61 62 76 79 74 70 63 51 55 71 83 89 117 122 120 118 101 102 130 154 171 185 186 188 189 177 161
3 3 0 357 355 351 350 352 353 354 358 6 7 17 39 48 55 57 65 69 71 66 67 60 51 45 50 65 92 109 121 122 105 84 98 125 136 177 184 187 181 168 166
357 356 356 354 350 347 345 347 346 344 354 4 3 9 33 44 48 50 52 63 66 62 62 64 61 47 38 49 46 67 120 137 133 118 67 59 98 113 110 117 149 174 186
350 350 350 347 344 342 341 341 340 341 352 358 3 7 22 35 37 42 50 64 69 73 67 57 57 51 51 45 40 34 82 132 148 154 129 23 17 34 99 67 52 35 329
344 343 344 344 342 344 346 345 347 351 356 2 3 5 15 23 28 38 44 41 63 76 72 64 61 50 39 33 37 31 63 101 113 147 166 159 186 285 141 123 96 52 339
336 335 340 339 341 347 347 348 353 357 3 2 357 360 4 16 27 31 28 29 50 61 67 68 61 52 22 18 27 18 78 88 75 140 159 161 159 217 280 149 145 310 304
340 339 340 342 346 347 351 352 353 357 358 354 355 357 359 9 21 17 15 14 44 76 73 56 51 51 28 16 16 6 67 75 53 61 75 34 285 219 235 200 185 213 256
339 341 341 342 342 346 352 349 352 351 348 349 355 359 359 2 11 9 13 24 33 59 61 52 41 42 28 15 17 15 24 60 51 35 18 19 22 329 314 287 224 225 249
341 343 340 339 342 348 351 345 346 346 349 350 356 359 360 3 9 20 17 22 34 49 46 44 34 31 25 22 22 19 15 5 22 12 357 5 359 328 315 299 270 286 303
338 340 340 339 345 350 351 344 340 346 350 351 353 355 0 6 8 17 17 19 21 26 22 29 31 19 18 20 16 11 11 3 355 2 354 349 350 343 335 354 326 306 275
339 340 342 341 342 344 347 341 341 345 347 349 348 349 358 3 9 9 6 10 10 10 4 359 9 8 356 356 356 358 8 10 7 1 6 4 4 356 347 336 321 291 246
337 340 341 338 337 341 343 342 342 343 344 344 344 347 355 358 4 6 3 353 348 337 330 323 313 311 310 316 325 327 333 331 326 330 332 339 345 353 339 324 314 301 294
334 337 340 338 338 339 337 339 339 341 341 337 341 342 342 348 358 2 5 8 359 358 355 349 339 330 333 324 321 328 330 326 323 329 314 323 335 332 335 337 325 316 306